Regional Weather Roundup
Issued by NWS

Home | Current Version | Previous Version | Text Only | Print | Product List | Glossary On
Versions: 1 2 3 4 5 6 7 8 9 10 11 12 13 14 15 16 17 18 19 20 21 22 23 24 25 26 27 28 29 30 31 32 33 34 35 36 37 38 39 40 41 42 43 44 45 46 47 48 49 50
269
ASUS43 KMKX 231000
RWRWI

WISCONSIN REGIONAL WEATHER ROUNDUP
NATIONAL WEATHER SERVICE MILWAUKEE/SULLIVAN WI
500 AM CDT WED AUG 23 2017

NOTE: "FAIR" INDICATES FEW OR NO CLOUDS BELOW 12,000 FEET WITH NO
SIGNIFICANT WEATHER AND/OR OBSTRUCTIONS TO VISIBILITY.

WIZ001-002-006>008-014>016-023>028-231100-
NORTHWEST WISCONSIN

CITY           SKY/WX    TMP DP  RH WIND       PRES   REMARKS
SUPERIOR ARPT    N/A     52  50  92 W5        30.03S
ASHLAND        PTCLDY    50  49  96 W5        30.01S
HAYWARD        CLEAR     46  45  96 SW5       30.05R
SIREN          CLEAR     50  49  94 CALM      30.06R
CUMBERLAND     CLEAR     50  46  87 NW3       30.05S
RICE LAKE      CLEAR     51  49  94 CALM      30.06S
CHETEK         CLEAR     53  50  90 CALM      30.05S
LADYSMITH      CLEAR     53  51  92 NW5       30.04S
EAU CLAIRE     NOT AVBL
MENOMONIE      CLEAR     55  50  85 W5        30.05S
NEW RICHMOND   CLEAR     50  49  95 CALM      30.07S
OSCEOLA        CLEAR     48  48 100 CALM      30.09F
$$

WIZ003>005-009-010-017-018-231100-
NORTH CENTRAL WISCONSIN

CITY           SKY/WX    TMP DP  RH WIND       PRES   REMARKS
MANITOWISH WTR CLOUDY    53  53 100 W5        30.00R
ARBOR VITAE    RAIN      57  55  94 NW5       29.99S
WOODRUFF       RAIN      57  55  94 NW5       29.99S
RHINELANDER    PTCLDY    50  50 100 W5        30.00S
EAGLE RIVER    LGT RAIN  53  53  99 W5        29.98S
LAND O LAKES   CLOUDY    55  52  91 NW6       29.99S
PHILLIPS       CLEAR     49  49 100 CALM      30.02R
TOMAHAWK         N/A     47  46  96 CALM      30.01S FOG
MEDFORD        CLEAR     48  47  95 NW3       30.02S
MERRILL        CLEAR     50  50 100 W5        30.01S
$$

WIZ029-030-035-036-043>047-231100-
CENTRAL WISCONSIN

CITY           SKY/WX    TMP DP  RH WIND       PRES   REMARKS
WAUSAU         PTCLDY    53  50  89 NW9       29.99S
MOSINEE        CLEAR     52  50  93 W8        30.02R
MARSHFIELD     CLEAR     51  47  86 NW5       30.02R
STEVENS POINT  CLEAR     52  50  92 W5        30.01S
WAUPACA        CLEAR     56  50  81 W6        30.00R
WAUTOMA        CLEAR     51  49  92 W6        30.02R
WISC RAPIDS    CLEAR     52  49  89 NW6       30.03R
CAMP DOUGLAS   CLEAR     48  47  94 W6        30.03S
$$

WIZ011>013-019>022-031-037>040-048>050-231100-
NORTHEAST WISCONSIN

CITY           SKY/WX    TMP DP  RH WIND       PRES   REMARKS
ANTIGO         PTCLDY    49  49  99 NW6       29.99S
SHAWANO        CLEAR     56  52  84 W5        29.97S
OCONTO         CLEAR     54  51  89 W7        29.94S
STURGEON BAY   CLEAR     59  54  83 NW12G18   29.95R
GREEN BAY      CLEAR     53  52  96 W8        29.96S
MANITOWOC      NOT AVBL
APPLETON       CLEAR     52  46  82 W10       29.97R
CLINTONVILLE   CLEAR     54  48  82 W7        29.98S
OSHKOSH        CLEAR     55  49  80 W8        29.98S
$$

WIZ032>034-041-042-053>061-231100-
SOUTHWEST WISCONSIN

CITY           SKY/WX    TMP DP  RH WIND       PRES   REMARKS
LA CROSSE      PTCLDY    56  53  90 CALM      30.05S
SPARTA         CLEAR     45  44  98 CALM      30.05S
VIROQUA        PTCLDY    53  51  93 W3        30.06S
BOSCOBEL       CLEAR     53  50  89 SW3       30.06S
PRAIRIE DU CHI CLEAR     53  47  79 CALM      30.06S
PLATTEVILLE    CLEAR     52  52 100 W5        30.07R
$$

WIZ056-057-062-063-064-067-068-231100-
SOUTH CENTRAL WISCONSIN

CITY           SKY/WX    TMP DP  RH WIND       PRES   REMARKS
REEDSBURG      CLEAR     51  51 100 CALM      30.03F
BARABOO/DELLS  CLEAR     55  49  79 W6        30.03S
LONE ROCK      NOT AVBL
MINERAL POINT  CLEAR     54  52  94 W5        30.05F
MADISON        CLEAR     56  51  84 NW6       30.02S
MIDDLETON      CLEAR     55  52  88 W6        30.03S
WATERTOWN      CLEAR     54  53  95 W3        30.01S
MONROE         CLEAR     54  50  87 W12       30.05S
JANESVILLE     CLEAR     54  54 100 CALM      30.02S
$$

WIZ051-052-058>065-066-070>072-231100-
SOUTHEAST WISCONSIN

CITY           SKY/WX    TMP DP  RH WIND       PRES   REMARKS
MILWAUKEE      CLEAR     62  51  67 W8        29.99S
WAUKESHA       CLEAR     54  48  82 W8        30.01S
MILWAUKEE/TIMM PTCLDY    55  46  71 W7        30.00S
RACINE         CLEAR     57  52  83 W7        30.01S
KENOSHA        CLEAR     56  50  80 W8        30.00F
FOND DU LAC    CLEAR     57  48  72 W8        29.99S
SHEBOYGAN      CLEAR     57  53  86 NW5       29.97S
WEST BEND      CLEAR     55  50  82 W8        29.99S
JUNEAU         CLEAR     52  49  89 CALM      30.02S
$$

LSZ147-162-231100-
LAKE SUPERIOR

STATION/POSITION TIME  TEMP    WIND        PRES    WAVE
                       AIR SEA DIR/SP/G            HT/PER
                 (UTC) (F)     (DEG/KT/KT) (MB)    (FT/S)
W MID LAKE BUOY  0850   59 60  350/ 12/ 12 1014.3R   2/ 4
DEVILS ISLAND    0900   60     330/ 11/ 13 1015.6R
SAXON HARBOR     0940   56     200/  5/  6 1015.6R
$$

LMZ867-665-643>646-231100-
LAKE MICHIGAN

STATION/POSITION TIME  TEMP    WIND        PRES    WAVE
                       AIR SEA DIR/SP/G            HT/PER
                 (UTC) (F)     (DEG/KT/KT) (MB)    (FT/S)
S GREEN BAY BUOY 0930   62 70  290/ 16/ 21 1013.9R
N MID LAKE BUOY  0850   62 66  310/ 16/ 19 1012.4R   3/ 4
NORTHPORT PIER   0940   60     290/ 10/ 16 1012.9R
KEWAUNEE LAKESHO 0930   57     300/  4/  6 1013.1S
SHEBOYGAN LAKESH 0900   60     280/  9/ 10 1014.3R
PORT WASHINGTON  0930   62     260/  7/  9 1015.9R
ATWATER BUOY     0809   64 67  250/ 12/ 16 1015.3R
MILWAUKEE LAKESH 0950   62     280/  9/ 11   N/A
S MID LAKE BUOY  0850   68 71  320/ 14/ 16 1014.8R   4/ 4
KENOSHA   LAKESH 0900   61     270/ 10/ 14 1015.6
$$

TC  - TEMPERATURE IN CELSIUS
VSB - VISIBILITY IN STATUTE MILES
WCI - WIND CHILL INDEX
HX  - HEAT INDEX





USA.gov is the U.S. government's official web portal to all federal, state and local government web resources and services.